[[{"header":{"parameterUnit":"m.s-1","parameterCategory":1,"la1":30.2991,"la2":30.254,"lo1":-89.0895,"lo2":-89.0444,"dy":0.0017,"dx":0.0017,"nx":28,"ny":28,"refTime":"2025-12-04T09:00:00:Z","depth":0,"parameterNumber":2,"parameterNumberName":"U-component_of_WINDS"},"data":[0,0,0,0,0,0,0,0,0,0,0,0,0,0,0,0,0,0,0,0,0,0,0,0,0,0,0,0,0,0,0,0,0,0,0,0,0,0,0,0,0,0,0,0,0,0,0,0,0,0,0,0,0,0,0,0,0,0,-0.0673,-0.0674,0,-0.0731,-0.0732,-0.0732,-0.0729,-0.0728,-0.0727,-0.0726,-0.0789,-0.0791,-0.0793,0,0,0,0,0,0,0,0,0,0,0,0,0,-0.0562,-0.0564,-0.0673,-0.0674,-0.0674,-0.0731,-0.0732,-0.0732,-0.0729,-0.0728,-0.0727,-0.0726,-0.0788,-0.0791,-0.0794,0,0,0,0,0,0,0,0,0,0,0,0,0,-0.0614,-0.0565,-0.0673,-0.0679,-0.0681,-0.0731,-0.0732,-0.0733,-0.0729,-0.0728,-0.0727,-0.0726,-0.0787,-0.079,-0.0794,-0.0842,0,0,-0.0805,-0.0807,0,0,0,0,0,0,0,0,-0.0611,-0.0618,-0.0678,-0.0679,-0.068,-0.0721,-0.0715,-0.0769,-0.073,-0.0711,-0.0726,-0.0725,-0.0767,-0.0773,-0.0786,-0.0845,-0.0848,-0.0806,-0.0808,-0.0809,-0.081,0,0,0,0,0,0,0,-0.0608,-0.0616,-0.0696,-0.0679,-0.068,-0.068,-0.0686,-0.0726,-0.0746,-0.0712,-0.0712,-0.0719,-0.0768,-0.0783,-0.0788,-0.0849,-0.0805,-0.0809,-0.0811,-0.0812,-0.095,-0.0951,0,0,0,0,0,0,-0.0602,-0.0613,-0.0694,-0.0698,-0.0642,-0.0683,-0.069,-0.071,-0.0745,-0.0749,-0.072,-0.0719,-0.0777,-0.0784,-0.079,-0.0849,-0.0809,-0.0813,-0.0815,-0.0948,-0.095,-0.0952,0,0,0,0,0,0,-0.06,-0.0609,-0.0692,-0.0655,-0.0666,-0.0687,-0.0709,-0.0711,-0.0726,-0.0751,-0.0755,-0.0731,-0.0776,-0.0785,-0.0829,-0.0851,-0.0814,-0.0818,-0.0947,-0.0949,-0.0951,-0.0966,0,0,0,0,0,0,-0.0597,-0.0609,-0.0627,-0.0656,-0.0668,-0.0729,-0.071,-0.0713,-0.0732,-0.0731,-0.0763,-0.0767,-0.0776,-0.0823,-0.0833,-0.0855,-0.0821,-0.0945,-0.0948,-0.095,-0.0964,-0.0969,-0.0973,0,0,0,0,0,-0.0593,-0.0629,-0.0627,-0.0637,-0.069,-0.073,-0.0737,-0.0747,-0.0734,-0.0753,-0.0768,-0.0766,-0.0847,-0.0828,-0.0838,-0.0862,-0.0943,-0.0947,-0.095,-0.0962,-0.0968,-0.0973,0,0,0,0,0,0,-0.0603,-0.0633,-0.0632,-0.0678,-0.0702,-0.073,-0.0753,-0.0752,-0.0781,-0.0778,-0.079,-0.0797,-0.0841,-0.0856,-0.0835,-0.0911,-0.0894,-0.0899,-0.0899,-0.0905,-0.0909,-0.0905,-0.0824,0,0,0,0,0,-0.0611,-0.064,-0.0665,-0.0704,-0.0716,-0.0732,-0.075,-0.0755,-0.078,-0.079,-0.081,-0.0835,-0.0866,-0.0886,-0.0916,-0.0966,-0.0973,-0.0988,-0.0992,-0.0996,-0.1,-0.1028,-0.1035,-0.0962,-0.0962,-0.0962,0,0,-0.0628,-0.0647,-0.0665,-0.0707,-0.0725,-0.0756,-0.0741,-0.0774,-0.0797,-0.0796,-0.0838,-0.0853,-0.0882,-0.0929,-0.0951,-0.0943,-0.1022,-0.1,-0.1002,-0.1005,-0.1032,-0.1039,-0.1045,-0.0964,-0.0964,-0.0964,0,0,-0.0673,-0.0691,-0.0725,-0.0744,-0.0772,-0.0783,-0.0791,-0.0819,-0.0829,-0.0871,-0.0871,-0.0899,-0.0952,-0.0973,-0.099,-0.1043,-0.1042,-0.1053,-0.1076,-0.1103,-0.1109,-0.1114,-0.1133,-0.114,-0.1057,-0.1057,-0.1057,0,-0.0691,-0.0736,-0.0743,-0.0777,-0.0795,-0.0794,-0.0829,-0.0847,-0.0884,-0.0897,-0.0888,-0.0954,-0.0974,-0.1026,-0.1039,-0.1053,-0.1063,-0.1049,-0.1107,-0.1112,-0.1117,-0.1136,-0.1143,-0.1058,-0.1058,-0.1058,-0.1058,0,-0.0756,-0.0787,-0.0812,-0.0846,-0.0867,-0.0902,-0.0915,-0.0936,-0.0939,-0.0951,-0.0995,-0.1018,-0.1052,-0.1065,-0.1069,-0.1118,-0.1112,-0.1104,-0.1088,-0.1125,-0.1143,-0.115,-0.106,-0.106,-0.1059,-0.1059,0,0,-0.0811,-0.0848,-0.0857,-0.0873,-0.0903,-0.0928,-0.0962,-0.0995,-0.1013,-0.1038,-0.1068,-0.1113,-0.1106,-0.1126,-0.1132,-0.1155,-0.1196,-0.1145,-0.1146,-0.1154,-0.1252,-0.1257,-0.1265,-0.1195,-0.1196,-0.1197,-0.1249,0,-0.086,-0.0919,-0.0927,-0.0981,-0.101,-0.1009,-0.1039,-0.1061,-0.1074,-0.1101,-0.1115,-0.1146,-0.1135,-0.1147,-0.117,-0.1186,-0.1216,-0.1182,-0.1223,-0.1225,-0.1217,-0.1275,-0.1281,-0.1329,-0.1256,-0.1257,-0.1258,0,-0.0925,-0.0951,-0.1007,-0.1033,-0.1046,-0.1073,-0.1103,-0.1129,-0.1155,-0.1162,-0.1184,-0.1187,-0.1223,-0.1204,-0.1254,-0.1231,-0.1249,-0.1259,-0.1261,-0.1266,-0.1244,-0.1281,-0.1344,-0.1352,-0.1269,-0.1268,-0.1268,0,-0.096,-0.1009,-0.1049,-0.1062,-0.1094,-0.1113,-0.1127,-0.1151,-0.117,-0.1197,-0.121,-0.1241,-0.1258,-0.1283,-0.1294,-0.1279,-0.1344,-0.1326,-0.1352,-0.1352,-0.1367,-0.1366,-0.1434,-0.1377,-0.1376,-0.1376,-0.1376,0,-0.1015,-0.1049,-0.1065,-0.109,-0.1128,-0.1137,-0.1175,-0.1189,-0.121,-0.1238,-0.1239,-0.1266,-0.1279,-0.1308,-0.1317,-0.1357,-0.1365,-0.1373,-0.1375,-0.1373,-0.1372,-0.1385,-0.1382,-0.1378,-0.1378,-0.1377,-0.1377,0,-0.106,-0.1072,-0.1116,-0.1142,-0.1149,-0.1176,-0.1199,-0.1223,-0.1234,-0.127,-0.1279,-0.1297,-0.1331,-0.1344,-0.1386,-0.1392,-0.1439,-0.1438,-0.143,-0.1431,-0.1456,-0.1454,-0.1535,-0.1547,-0.1482,-0.1482,-0.1483,0,-0.1095,-0.1121,-0.1149,-0.1167,-0.1182,-0.1211,-0.123,-0.124,-0.126,-0.1291,-0.1312,-0.1345,-0.1372,-0.1426,-0.1444,-0.1475,-0.1476,-0.1502,-0.1481,-0.1478,-0.1477,-0.1475,-0.1478,-0.1506,-0.1507,-0.1508,-0.1508,0,-0.1154,-0.1159,-0.1186,-0.1215,-0.1238,-0.1262,-0.1285,-0.13,-0.1313,-0.1336,-0.137,-0.139,-0.1432,-0.1465,-0.1498,-0.1514,-0.1514,-0.1514,-0.1522,-0.1521,-0.1515,-0.1519,-0.1441,-0.1513,-0.1512,-0.1512,-0.1512,-0.1512,-0.1196,-0.1219,-0.1242,-0.1273,-0.1291,-0.1312,-0.1336,-0.135,-0.1378,-0.1412,-0.1416,-0.1453,-0.1478,-0.1521,-0.1538,-0.1567,-0.156,-0.1572,-0.1575,-0.1577,-0.1579,-0.151,-0.1573,-0.1573,-0.1573,-0.1573,-0.1573,0,-0.1256,-0.1271,-0.1298,-0.133,-0.1354,-0.135,-0.1376,-0.1396,-0.1428,-0.1451,-0.1477,-0.1516,-0.1548,-0.1568,-0.16,-0.162,-0.1621,-0.1628,-0.1627,-0.1631,-0.1583,-0.1573,-0.1627,-0.1627,-0.1627,-0.1627,-0.1627,-0.1627,-0.129,-0.1329,-0.1336,-0.1385,-0.14,-0.1434,-0.1449,-0.1469,-0.1487,-0.153,-0.1557,-0.1569,-0.1591,-0.1625,-0.1654,-0.1659,-0.1672,-0.168,-0.1684,-0.164,-0.1634,-0.1629,-0.162,-0.1682,-0.1682,-0.173,-0.173,-0.173]},{"header":{"parameterUnit":"m.s-1","parameterCategory":1,"la1":30.2991,"la2":30.254,"lo1":-89.0895,"lo2":-89.0444,"dy":0.0017,"dx":0.0017,"nx":28,"ny":28,"refTime":"2025-12-04T09:00:00:Z","depth":0,"parameterNumber":3,"parameterNumberName":"V-component_of_WINDS"},"data":[0,0,0,0,0,0,0,0,0,0,0,0,0,0,0,0,0,0,0,0,0,0,0,0,0,0,0,0,0,0,0,0,0,0,0,0,0,0,0,0,0,0,0,0,0,0,0,0,0,0,0,0,0,0,0,0,0,0,-0.89,-0.89,0,-0.8902,-0.8902,-0.8902,-0.8902,-0.8902,-0.8901,-0.8901,-0.8902,-0.8902,-0.8902,0,0,0,0,0,0,0,0,0,0,0,0,0,-0.8897,-0.8897,-0.89,-0.89,-0.8901,-0.8902,-0.8902,-0.8902,-0.8902,-0.8902,-0.8901,-0.8901,-0.8902,-0.8902,-0.8902,0,0,0,0,0,0,0,0,0,0,0,0,0,-0.8899,-0.8897,-0.89,-0.8901,-0.8901,-0.8902,-0.8902,-0.8902,-0.8902,-0.8902,-0.8901,-0.8901,-0.8902,-0.8902,-0.8902,-0.8903,0,0,-0.8903,-0.8903,0,0,0,0,0,0,0,0,-0.8899,-0.8899,-0.8901,-0.8901,-0.8901,-0.8901,-0.8901,-0.8902,-0.8902,-0.8901,-0.8901,-0.8901,-0.8902,-0.8902,-0.8902,-0.8903,-0.8903,-0.8903,-0.8903,-0.8903,-0.8903,0,0,0,0,0,0,0,-0.8898,-0.8899,-0.8901,-0.8901,-0.8901,-0.89,-0.89,-0.8901,-0.8902,-0.8901,-0.8901,-0.8901,-0.8902,-0.8902,-0.8902,-0.8903,-0.8903,-0.8903,-0.8903,-0.8903,-0.8904,-0.8904,0,0,0,0,0,0,-0.8898,-0.8899,-0.8901,-0.8901,-0.8899,-0.89,-0.8901,-0.8901,-0.8902,-0.8902,-0.8901,-0.8901,-0.8902,-0.8902,-0.8902,-0.8903,-0.8903,-0.8903,-0.8903,-0.8904,-0.8904,-0.8904,0,0,0,0,0,0,-0.8898,-0.8899,-0.8901,-0.89,-0.89,-0.89,-0.8901,-0.8901,-0.8902,-0.8902,-0.8902,-0.8902,-0.8902,-0.8902,-0.8903,-0.8903,-0.8903,-0.8903,-0.8904,-0.8904,-0.8904,-0.8905,0,0,0,0,0,0,-0.8898,-0.8899,-0.8899,-0.89,-0.89,-0.8902,-0.8901,-0.8901,-0.8902,-0.8902,-0.8902,-0.8902,-0.8902,-0.8903,-0.8903,-0.8903,-0.8903,-0.8904,-0.8904,-0.8904,-0.8905,-0.8905,-0.8905,0,0,0,0,0,-0.8898,-0.8899,-0.8899,-0.89,-0.8901,-0.8902,-0.8902,-0.8902,-0.8902,-0.8902,-0.8902,-0.8902,-0.8903,-0.8903,-0.8903,-0.8903,-0.8904,-0.8904,-0.8904,-0.8905,-0.8905,-0.8905,0,0,0,0,0,0,-0.8899,-0.8899,-0.8899,-0.8901,-0.8901,-0.8902,-0.8902,-0.8902,-0.8902,-0.8902,-0.8902,-0.8903,-0.8903,-0.8903,-0.8903,-0.8904,-0.8904,-0.8904,-0.8904,-0.8904,-0.8904,-0.8904,-0.8903,0,0,0,0,0,-0.8899,-0.89,-0.89,-0.8901,-0.8902,-0.8902,-0.8902,-0.8902,-0.8903,-0.8903,-0.8903,-0.8903,-0.8903,-0.8904,-0.8904,-0.8905,-0.8904,-0.8905,-0.8905,-0.8905,-0.8905,-0.8904,-0.8904,-0.8905,-0.8905,-0.8905,0,0,-0.89,-0.89,-0.8901,-0.8902,-0.8902,-0.8902,-0.8902,-0.8903,-0.8903,-0.8903,-0.8903,-0.8903,-0.8904,-0.8904,-0.8904,-0.8904,-0.8905,-0.8905,-0.8905,-0.8905,-0.8904,-0.8904,-0.8904,-0.8905,-0.8905,-0.8905,0,0,-0.8901,-0.8902,-0.8902,-0.8903,-0.8903,-0.8903,-0.8903,-0.8903,-0.8903,-0.8904,-0.8904,-0.8904,-0.8904,-0.8904,-0.8904,-0.8905,-0.8905,-0.8905,-0.8905,-0.8905,-0.8905,-0.8905,-0.8905,-0.8905,-0.8905,-0.8905,-0.8905,0,-0.8902,-0.8903,-0.8903,-0.8903,-0.8903,-0.8903,-0.8904,-0.8904,-0.8904,-0.8904,-0.8904,-0.8904,-0.8905,-0.8905,-0.8905,-0.8905,-0.8905,-0.8905,-0.8905,-0.8905,-0.8905,-0.8905,-0.8905,-0.8905,-0.8905,-0.8905,-0.8905,0,-0.8903,-0.8904,-0.8904,-0.8905,-0.8905,-0.8905,-0.8905,-0.8905,-0.8905,-0.8905,-0.8905,-0.8905,-0.8905,-0.8905,-0.8905,-0.8905,-0.8905,-0.8905,-0.8905,-0.8905,-0.8905,-0.8905,-0.8905,-0.8905,-0.8905,-0.8905,0,0,-0.8906,-0.8905,-0.8906,-0.8905,-0.8905,-0.8906,-0.8906,-0.8906,-0.8906,-0.8906,-0.8906,-0.8906,-0.8905,-0.8906,-0.8905,-0.8905,-0.8905,-0.8905,-0.8905,-0.8905,-0.8904,-0.8904,-0.8904,-0.8905,-0.8905,-0.8905,-0.8904,0,-0.8907,-0.8907,-0.8907,-0.8907,-0.8907,-0.8907,-0.8907,-0.8907,-0.8906,-0.8906,-0.8906,-0.8906,-0.8906,-0.8906,-0.8905,-0.8905,-0.8905,-0.8905,-0.8904,-0.8904,-0.8904,-0.8904,-0.8904,-0.8904,-0.8904,-0.8904,-0.8904,0,-0.8908,-0.8908,-0.8908,-0.8908,-0.8908,-0.8908,-0.8907,-0.8907,-0.8907,-0.8907,-0.8906,-0.8906,-0.8906,-0.8906,-0.8905,-0.8905,-0.8905,-0.8904,-0.8904,-0.8904,-0.8904,-0.8904,-0.8903,-0.8903,-0.8904,-0.8904,-0.8904,0,-0.8909,-0.8909,-0.8909,-0.8909,-0.8908,-0.8908,-0.8908,-0.8908,-0.8907,-0.8907,-0.8907,-0.8906,-0.8906,-0.8905,-0.8905,-0.8905,-0.8904,-0.8904,-0.8904,-0.8903,-0.8903,-0.8903,-0.8903,-0.8903,-0.8903,-0.8903,-0.8903,0,-0.891,-0.891,-0.891,-0.891,-0.8909,-0.8909,-0.8909,-0.8908,-0.8908,-0.8907,-0.8907,-0.8906,-0.8906,-0.8905,-0.8905,-0.8904,-0.8904,-0.8903,-0.8903,-0.8903,-0.8903,-0.8903,-0.8903,-0.8903,-0.8903,-0.8903,-0.8903,0,-0.8912,-0.8911,-0.8911,-0.891,-0.891,-0.891,-0.8909,-0.8909,-0.8908,-0.8908,-0.8907,-0.8907,-0.8906,-0.8905,-0.8904,-0.8904,-0.8903,-0.8903,-0.8903,-0.8903,-0.8902,-0.8902,-0.8902,-0.8901,-0.8902,-0.8902,-0.8902,0,-0.8912,-0.8912,-0.8911,-0.8911,-0.8911,-0.891,-0.891,-0.8909,-0.8909,-0.8908,-0.8907,-0.8907,-0.8906,-0.8905,-0.8904,-0.8903,-0.8903,-0.8902,-0.8903,-0.8902,-0.8902,-0.8902,-0.8902,-0.8902,-0.8902,-0.8902,-0.8902,0,-0.8913,-0.8913,-0.8912,-0.8912,-0.8911,-0.891,-0.891,-0.891,-0.8909,-0.8908,-0.8907,-0.8907,-0.8905,-0.8904,-0.8903,-0.8903,-0.8902,-0.8902,-0.8902,-0.8902,-0.8902,-0.8902,-0.8903,-0.8902,-0.8902,-0.8902,-0.8902,-0.8902,-0.8914,-0.8914,-0.8913,-0.8912,-0.8911,-0.8911,-0.891,-0.8909,-0.8909,-0.8908,-0.8907,-0.8906,-0.8905,-0.8903,-0.8903,-0.8902,-0.8902,-0.8902,-0.8902,-0.8901,-0.8901,-0.8902,-0.8902,-0.8902,-0.8902,-0.8902,-0.8902,0,-0.8915,-0.8914,-0.8913,-0.8912,-0.8911,-0.8911,-0.891,-0.8909,-0.8908,-0.8908,-0.8907,-0.8905,-0.8904,-0.8903,-0.8902,-0.8901,-0.8901,-0.8901,-0.8901,-0.8901,-0.8902,-0.8902,-0.8901,-0.8901,-0.8901,-0.8901,-0.8901,-0.8901,-0.8915,-0.8914,-0.8914,-0.8912,-0.8912,-0.891,-0.891,-0.8909,-0.8908,-0.8907,-0.8906,-0.8905,-0.8904,-0.8902,-0.8901,-0.8901,-0.89,-0.89,-0.89,-0.8901,-0.8901,-0.8901,-0.8901,-0.89,-0.89,-0.8899,-0.8899,-0.8899]}]]